Weather History for Chippewa, MI

Change the Weather History Date:

Sunday, October 16, 2011

  Actual Average Record
Temperature  
Mean Temperature 48 °F -  
Max Temperature 53 °F 54 °F 64 °F (1988)
Min Temperature 42 °F 32 °F 22 °F (1980)
Degree Days  
Heating Degree Days 18    
Moisture  
Dew Point 34 °F    
Average Humidity 63    
Maximum Humidity 76    
Minimum Humidity 41    
Precipitation  
Precipitation 0.06 in - - ()
Sea Level Pressure  
Sea Level Pressure 29.53 in    
Wind  
Wind Speed 12 mph (WSW)    
Max Wind Speed 24 mph    
Max Gust Speed 37 mph    
Visibility 10 miles    
Events Thunderstorm    
Averages and records for this station are not official NWS values.
T = Trace of Precipitation, MM = Missing Value Source: NWS Daily Summary

Daily Weather History Graph

Daily Weather History Graph

Search for Another Location

Airport:

Trip Planner

Search our weather history database for the weather conditions in past years. The results will help you decide how hot, cold, wet, or windy it might be!

Date:

Astronomy

Oct. 16, 2011 Rise Set
Actual Time 7:56 AM EDT 6:50 PM EDT
Civil Twilight 7:25 AM EDT 7:20 PM EDT
Nautical Twilight 6:50 AM EDT 7:55 PM EDT
Astronomical Twilight 6:16 AM EDT 8:29 PM EDT
Moon 9:20 PM EDT (10/16) 12:27 PM EDT (10/16)
Length of Visible Light 11h 54m
Length of Day
10h 54m
Waning Gibbous, 82% of the Moon is Illuminated
Oct 16
Waning Gibbous
Oct 19
Last Quarter
Oct 26
New
Nov 2
First Quarter
Nov 10
Full

Hourly Weather History & Observations

Time (EDT) Temp. Windchill Dew Point Humidity Pressure Visibility Wind Dir Wind Speed Gust Speed Precip Events Conditions
12:15 AM 44.6 °F 39.7 °F 35.6 °F 71% 29.56 in 10.0 mi West 9.2 mph - N/A   Overcast
12:35 AM 44.6 °F 40.2 °F 35.6 °F 71% 29.56 in 10.0 mi West 8.1 mph - N/A   Overcast
12:55 AM 44.6 °F 38.8 °F 35.6 °F 71% 29.56 in 10.0 mi West 11.5 mph - N/A   Overcast
1:15 AM 44.6 °F 38.4 °F 35.6 °F 71% 29.56 in 10.0 mi West 12.7 mph 18.4 mph N/A   Overcast
1:35 AM 44.6 °F 39.7 °F 33.8 °F 66% 29.57 in 10.0 mi West 9.2 mph - N/A   Overcast
1:55 AM 42.8 °F 37.5 °F 33.8 °F 70% 29.57 in 10.0 mi WSW 9.2 mph - N/A   Overcast
2:15 AM 42.8 °F 38.0 °F 33.8 °F 70% 29.57 in 10.0 mi WSW 8.1 mph - N/A   Overcast
2:35 AM 42.8 °F 36.6 °F 33.8 °F 70% 29.57 in 10.0 mi WSW 11.5 mph - N/A   Mostly Cloudy
2:55 AM 42.8 °F 38.0 °F 33.8 °F 70% 29.57 in 10.0 mi WSW 8.1 mph - N/A   Overcast
3:15 AM 42.8 °F 37.0 °F 33.8 °F 70% 29.57 in 10.0 mi WSW 10.4 mph - N/A   Overcast
3:35 AM 42.8 °F 36.6 °F 33.8 °F 70% 29.57 in 10.0 mi WSW 11.5 mph 16.1 mph N/A   Overcast
3:55 AM 42.8 °F 37.0 °F 33.8 °F 70% 29.57 in 10.0 mi WSW 10.4 mph 16.1 mph N/A   Overcast
4:15 AM 42.8 °F 36.6 °F 33.8 °F 70% 29.57 in 10.0 mi West 11.5 mph 18.4 mph N/A   Overcast
4:35 AM 42.8 °F 36.6 °F 33.8 °F 70% 29.56 in 10.0 mi WSW 11.5 mph - N/A   Overcast
4:55 AM 42.8 °F 38.0 °F 33.8 °F 70% 29.57 in 10.0 mi WSW 8.1 mph - N/A   Overcast
5:15 AM 42.8 °F 36.2 °F 33.8 °F 70% 29.57 in 10.0 mi West 12.7 mph 18.4 mph N/A   Overcast
5:35 AM 42.8 °F 36.6 °F 33.8 °F 70% 29.57 in 10.0 mi West 11.5 mph 19.6 mph N/A   Overcast
5:55 AM 42.8 °F 37.0 °F 33.8 °F 70% 29.57 in 10.0 mi West 10.4 mph - N/A   Overcast
6:15 AM 42.8 °F 37.0 °F 33.8 °F 70% 29.57 in 10.0 mi WSW 10.4 mph 16.1 mph N/A   Overcast
6:35 AM 42.8 °F 36.2 °F 33.8 °F 70% 29.57 in 10.0 mi WSW 12.7 mph 18.4 mph N/A   Overcast
6:55 AM 42.8 °F 37.5 °F 33.8 °F 70% 29.56 in 10.0 mi WSW 9.2 mph - N/A   Overcast
7:15 AM 44.6 °F 38.8 °F 33.8 °F 66% 29.56 in 10.0 mi WSW 11.5 mph - N/A   Overcast
7:35 AM 44.6 °F 38.4 °F 33.8 °F 66% 29.55 in 10.0 mi WSW 12.7 mph 17.3 mph N/A   Overcast
7:55 AM 44.6 °F 38.4 °F 33.8 °F 66% 29.55 in 10.0 mi WSW 12.7 mph 18.4 mph N/A   Overcast
8:15 AM 44.6 °F 38.4 °F 33.8 °F 66% 29.55 in 10.0 mi WSW 12.7 mph 21.9 mph N/A   Overcast
8:35 AM 44.6 °F 39.2 °F 33.8 °F 66% 29.55 in 10.0 mi West 10.4 mph 17.3 mph N/A   Overcast
8:55 AM 44.6 °F 38.1 °F 33.8 °F 66% 29.55 in 10.0 mi WSW 13.8 mph 18.4 mph N/A   Overcast
9:15 AM 44.6 °F 38.1 °F 32.0 °F 61% 29.55 in 10.0 mi West 13.8 mph 19.6 mph N/A   Overcast
9:35 AM 44.6 °F 38.1 °F 33.8 °F 66% 29.55 in 10.0 mi West 13.8 mph 20.7 mph N/A   Mostly Cloudy
9:55 AM 46.4 °F 40.7 °F 33.8 °F 62% 29.55 in 10.0 mi West 12.7 mph 24.2 mph N/A   Mostly Cloudy
10:15 AM 46.4 °F 39.8 °F 33.8 °F 62% 29.55 in 10.0 mi WSW 16.1 mph 23.0 mph N/A   Overcast
10:35 AM 46.4 °F 39.0 °F 33.8 °F 62% 29.55 in 10.0 mi West 19.6 mph 26.5 mph N/A   Mostly Cloudy
10:55 AM 48.2 °F - 33.8 °F 58% 29.54 in 10.0 mi West 17.3 mph 25.3 mph N/A   Partly Cloudy
11:15 AM 48.2 °F - 33.8 °F 58% 29.53 in 10.0 mi West 20.7 mph 28.8 mph N/A   Clear
11:35 AM 50.0 °F - 33.8 °F 54% 29.53 in 10.0 mi West 18.4 mph 29.9 mph N/A   Partly Cloudy
11:55 AM 51.8 °F - 33.8 °F 50% 29.52 in 10.0 mi West 20.7 mph 25.3 mph N/A   Partly Cloudy
12:15 PM 51.8 °F - 33.8 °F 50% 29.52 in 10.0 mi West 13.8 mph 24.2 mph N/A   Partly Cloudy
12:35 PM 51.8 °F - 33.8 °F 50% 29.51 in 10.0 mi West 17.3 mph 26.5 mph N/A   Scattered Clouds
12:55 PM 53.6 °F - 33.8 °F 47% 29.50 in 10.0 mi West 20.7 mph 28.8 mph N/A   Mostly Cloudy
1:15 PM 51.8 °F - 30.2 °F 44% 29.49 in 10.0 mi WSW 17.3 mph 33.4 mph N/A   Mostly Cloudy
1:35 PM 53.6 °F - 30.2 °F 41% 29.48 in 10.0 mi West 19.6 mph 28.8 mph N/A   Mostly Cloudy
1:55 PM 53.6 °F - 30.2 °F 41% 29.47 in 10.0 mi West 16.1 mph 28.8 mph N/A   Mostly Cloudy
2:15 PM 53.6 °F - 32.0 °F 44% 29.46 in 10.0 mi SW 17.3 mph 24.2 mph N/A   Overcast
2:35 PM 53.6 °F - 33.8 °F 47% 29.45 in 10.0 mi SW 12.7 mph 23.0 mph N/A   Mostly Cloudy
2:55 PM 53.6 °F - 33.8 °F 47% 29.44 in 10.0 mi WSW 16.1 mph 26.5 mph N/A   Mostly Cloudy
3:15 PM 53.6 °F - 35.6 °F 51% 29.44 in 10.0 mi WSW 19.6 mph 26.5 mph N/A   Partly Cloudy
3:35 PM 46.4 °F 38.7 °F 32.0 °F 57% 29.47 in 10.0 mi West 20.7 mph 36.8 mph 0.02 in Thunderstorm Mostly Cloudy
3:55 PM 42.8 °F 36.2 °F 35.6 °F 76% 29.47 in 10.0 mi West 12.7 mph 23.0 mph 0.04 in   Overcast
4:15 PM 44.6 °F 39.7 °F 37.4 °F 76% 29.47 in 10.0 mi West 9.2 mph 16.1 mph N/A   Overcast
4:35 PM 44.6 °F 38.4 °F 37.4 °F 76% 29.46 in 10.0 mi West 12.7 mph 19.6 mph N/A   Mostly Cloudy
4:55 PM 44.6 °F 35.7 °F 35.6 °F 71% 29.47 in 8.0 mi WNW 24.2 mph 28.8 mph 0.01 in   Overcast
5:15 PM 44.6 °F 36.9 °F 33.8 °F 66% 29.47 in 10.0 mi West 18.4 mph 24.2 mph 0.01 in   Mostly Cloudy
5:35 PM 44.6 °F 36.9 °F 33.8 °F 66% 29.46 in 10.0 mi West 18.4 mph 24.2 mph 0.01 in   Mostly Cloudy
5:55 PM 44.6 °F 36.9 °F 33.8 °F 66% 29.47 in 10.0 mi West 18.4 mph 24.2 mph 0.01 in   Mostly Cloudy
6:35 PM 42.8 °F 37.0 °F 33.8 °F 70% 29.48 in 10.0 mi West 10.4 mph 17.3 mph N/A   Mostly Cloudy
6:55 PM 42.8 °F 37.0 °F 33.8 °F 70% 29.48 in 10.0 mi West 10.4 mph - N/A   Partly Cloudy
7:15 PM 42.8 °F 38.0 °F 33.8 °F 70% 29.49 in 10.0 mi West 8.1 mph - N/A   Scattered Clouds
7:35 PM 42.8 °F 38.0 °F 32.0 °F 66% 29.49 in 10.0 mi West 8.1 mph - N/A   Partly Cloudy
7:55 PM 41.0 °F 37.1 °F 30.2 °F 65% 29.48 in 10.0 mi WSW 5.8 mph - N/A   Clear
8:15 PM 41.0 °F 30.7 °F 32.0 °F 70% 29.49 in 10.0 mi NW 25.3 mph 31.1 mph N/A   Mostly Cloudy
8:35 PM 41.0 °F 34.7 °F 33.8 °F 76% 29.48 in 10.0 mi West 10.4 mph - N/A   Mostly Cloudy
8:55 PM 41.0 °F 35.2 °F 33.8 °F 76% 29.48 in 10.0 mi WNW 9.2 mph - N/A   Overcast
9:15 PM 41.0 °F 33.5 °F 33.8 °F 76% 29.49 in 10.0 mi NW 13.8 mph 19.6 mph N/A   Overcast
9:35 PM 41.0 °F 31.4 °F 33.8 °F 76% 29.49 in 10.0 mi WNW 21.9 mph 27.6 mph N/A   Mostly Cloudy
9:55 PM 41.0 °F 31.9 °F 33.8 °F 76% 29.49 in 10.0 mi WNW 19.6 mph 26.5 mph N/A   Overcast
10:15 PM 41.0 °F 32.2 °F 33.8 °F 76% 29.49 in 10.0 mi West 18.4 mph 25.3 mph N/A   Overcast
10:35 PM 41.0 °F 32.5 °F 32.0 °F 70% 29.49 in 10.0 mi West 17.3 mph 34.5 mph N/A   Overcast
10:55 PM 42.8 °F 34.3 °F 30.2 °F 61% 29.48 in 10.0 mi West 19.6 mph 31.1 mph N/A   Overcast
11:15 PM 42.8 °F 34.8 °F 30.2 °F 61% 29.47 in 10.0 mi West 17.3 mph 27.6 mph N/A   Overcast
11:35 PM 42.8 °F 35.1 °F 30.2 °F 61% 29.47 in 10.0 mi West 16.1 mph 19.6 mph N/A   Overcast
11:55 PM 42.8 °F 35.8 °F 30.2 °F 61% 29.47 in 10.0 mi West 13.8 mph 21.9 mph N/A   Overcast